Location: North Bay
(46.3091°N, 79.4608°W)
Time: 15:56:48
(UTC-05:00)

N. Korean satellite - Pass Details

Date: 24 October 2019
Orbit: 456 x 506 km, 97.2° (Epoch: 10 November)

Event Time Altitude Azimuth Distance (km) Brightness Sun altitude
Rises 06:55:41 0° 17° (NNE) 2,571 10.4 -9.6°
Reaches altitude 10° 06:57:49 10° 24° (NNE) 1,693 9.5 -9.2°
Maximum altitude 07:01:20 46° 99° (E) 673 7.9 -8.6°
Drops below altitude 10° 07:04:53 10° 174° (S) 1,701 9.5 -8.0°
Sets 07:07:01 0° 180° (S) 2,585 10.4 -7.6°
